EHI
30 30 29 27 26 23 20 19 19 18 16 14 14 14 13 11 8 7 5 3 1 0 0 0 0 0 0 0 0 0 0 0 0 1 2 2 2 1 1 0 0 0 0
29 29 29 29 27 24 22 21 20 18 15 13 11 10 8 6 5 4 4 3 1 0 0 0 0 0 0 0 0 0 0 0 0 1 1 2 2 2 2 1 0 0 0
28 29 31 31 29 26 24 22 19 17 14 11 8 4 2 1 1 1 2 2 1 0 0 0 0 0 0 0 0 0 0 0 0 0 0 1 2 3 2 1 0 0 0
28 29 30 30 27 23 21 20 17 14 10 7 4 1 0 0 0 1 1 1 0 0 0 0 0 0 0 0 0 0 0 0 0 0 0 0 1 2 1 1 0 0 0
26 26 26 25 21 18 17 17 16 12 6 2 1 0 0 0 0 0 0 0 0 0 0 0 0 0 0 0 0 0 0 0 0 0 0 0 0 0 0 0 0 0 0
23 23 22 19 15 14 14 16 16 12 6 2 2 1 0 0 0 0 0 0 0 0 0 0 0 0 0 0 0 0 0 0 0 0 0 0 0 0 0 0 0 0 0
19 19 18 16 14 13 14 14 15 12 7 4 3 1 0 0 0 0 0 0 0 0 0 0 0 0 0 0 0 0 0 0 0 0 0 0 0 0 0 0 0 0 0
15 15 15 13 13 13 13 12 12 10 7 5 4 1 0 0 0 0 0 0 0 0 0 0 0 0 0 0 0 0 0 0 0 0 0 1 0 0 0 0 0 0 0
12 13 12 11 11 12 11 11 11 9 6 5 3 2 1 1 0 0 0 0 0 0 0 0 0 0 0 0 0 0 0 0 0 0 0 0 0 0 0 0 0 0 0
12 12 12 10 10 10 11 12 12 9 6 4 2 1 1 1 0 0 0 0 0 0 0 0 0 0 0 0 0 0 0 0 0 0 0 0 0 0 0 0 0 0 0
13 12 11 10 9 9 10 12 12 9 5 2 1 1 1 0 0 0 0 0 0 0 0 0 0 0 0 0 0 0 0 0 0 0 0 0 0 0 0 0 0 0 0
14 13 12 11 9 9 11 11 10 7 4 1 0 0 1 0 0 0 0 0 0 0 0 0 0 0 0 0 0 0 0 0 0 0 0 0 0 0 0 0 0 1 1
16 15 14 12 11 11 11 10 7 5 2 1 0 0 1 1 0 0 0 0 0 0 0 0 0 0 0 0 0 0 0 0 0 0 0 0 0 0 0 0 1 2 2
16 15 15 13 12 11 11 8 4 2 1 0 0 0 1 1 1 0 0 0 0 0 0 0 0 0 0 0 0 0 0 0 0 0 0 0 0 0 0 0 1 1 1
13 13 12 11 10 9 8 5 2 1 0 0 0 0 1 1 1 0 0 0 0 0 0 0 0 0 0 0 0 0 0 0 0 0 0 0 0 0 0 0 0 0 0
11 11 10 8 8 7 6 3 1 1 0 0 0 0 0 0 0 0 0 0 0 0 0 0 0 0 0 0 0 0 0 0 0 0 0 0 0 0 0 0 0 0 0
9 9 7 7 7 7 6 4 1 0 0 0 0 0 0 0 0 0 0 0 0 0 0 0 0 0 0 0 0 0 0 0 0 0 0 0 0 0 0 0 0 0 0
6 6 6 5 5 5 6 5 2 0 0 0 0 0 0 0 0 0 0 0 0 0 0 0 0 0 0 0 0 0 0 0 0 0 0 0 0 0 0 0 0 0 0
5 5 4 4 3 4 6 6 3 1 0 0 0 0 0 0 0 0 0 0 0 0 0 0 0 0 0 0 0 0 0 0 0 0 0 0 0 0 0 0 0 0 0
6 4 3 3 3 3 5 5 3 1 0 1 0 0 0 0 0 0 0 0 0 0 0 0 0 0 0 0 0 0 0 0 0 0 0 0 0 0 0 0 0 0 0
4 3 2 2 2 3 4 3 2 1 0 0 0 0 0 0 0 0 0 0 0 0 0 0 0 0 0 0 0 0 0 0 0 0 0 0 0 0 0 0 0 0 0
2 2 2 3 3 3 3 2 2 2 1 0 0 0 0 0 0 0 0 0 0 0 0 0 0 0 0 0 0 0 0 0 0 0 0 0 0 0 0 0 0 0 0
2 1 2 4 5 4 3 2 3 3 2 1 1 0 0 0 0 0 0 0 0 0 0 0 0 0 0 0 0 0 0 0 0 0 0 0 0 0 0 0 0 0 0
1 1 2 4 5 4 3 2 3 4 4 3 3 1 0 0 0 0 0 0 0 0 0 0 0 0 0 0 0 0 0 0 0 0 0 0 0 0 0 0 0 0 0
1 1 2 2 2 2 1 1 3 4 3 3 2 1 0 0 0 0 0 0 0 0 0 0 0 0 0 0 0 0 0 0 0 0 0 0 0 0 0 0 0 0 0
0 1 1 1 0 0 0 0 1 2 1 1 1 0 0 0 0 0 0 0 0 0 0 0 0 0 0 0 0 0 0 0 0 0 0 0 0 0 0 0 0 0 0
Wind_Speed
4 3 3 3 2 2 1 1 1 1 1 1 1 1 1 1 1 1 1 1 1 1 1 1 1 1 1 1 1 2 2 1 1 1 0 0 2 2 2 1 2 3 4
5 4 3 3 2 1 1 1 1 1 0 0 1 1 1 1 1 2 2 2 1 1 1 1 1 1 1 1 2 2 1 1 0 0 1 0 1 2 1 1 1 2 2
5 5 3 3 2 1 1 1 0 0 0 0 0 1 1 1 1 2 2 2 2 1 1 1 1 1 1 1 2 2 1 1 0 1 1 0 0 1 1 1 2 1 3
4 5 4 3 2 1 1 1 0 0 0 1 1 1 1 1 1 1 1 1 1 0 0 0 1 1 1 2 1 2 1 1 1 0 1 0 0 0 1 1 1 1 2
4 4 4 3 2 2 1 1 1 0 0 1 1 1 1 1 1 1 1 1 0 0 0 0 0 1 1 0 0 1 1 1 1 1 1 1 1 1 1 1 2 1 2
4 4 4 4 3 2 2 1 1 1 1 1 1 2 2 2 3 4 2 1 0 0 0 1 1 2 3 3 2 2 1 0 1 1 1 1 1 1 1 2 1 2 2
3 4 4 4 3 2 2 2 2 1 1 1 1 1 2 3 4 3 3 1 1 1 0 0 1 1 2 1 1 2 1 1 1 1 1 1 1 1 1 2 2 2 3
4 3 4 4 3 3 2 2 1 1 1 1 1 1 2 3 4 4 3 1 1 1 1 1 1 1 2 1 0 1 1 0 1 1 1 1 2 1 1 2 3 3 3
3 3 3 4 3 3 2 2 1 1 1 1 1 1 2 3 3 3 3 0 1 1 2 2 1 1 2 2 1 0 0 0 1 1 1 2 3 3 2 1 2 2 3
3 3 3 3 3 3 2 2 2 1 1 1 1 2 2 2 2 2 2 1 1 1 1 2 3 2 2 2 0 1 1 1 2 2 2 3 3 4 4 3 2 2 2
3 3 3 3 3 3 3 2 2 1 1 1 1 1 1 2 2 1 1 1 1 0 1 1 2 3 2 1 1 0 2 2 2 2 2 2 2 2 2 2 2 2 2
3 3 3 3 3 3 2 2 2 2 2 1 1 1 2 2 2 2 1 1 3 1 1 1 2 1 1 2 2 3 4 3 2 2 2 1 1 1 1 2 3 3 3
3 3 3 2 2 2 3 3 2 2 1 2 1 1 1 2 2 2 2 2 3 1 1 1 1 2 3 3 5 5 3 2 2 2 2 1 1 1 1 2 2 3 3
3 3 3 2 3 2 2 2 2 1 1 1 1 1 1 2 2 1 0 0 0 0 0 0 2 4 5 4 3 4 3 3 2 2 2 1 1 1 2 2 2 2 2
4 4 4 4 3 2 1 1 0 1 1 1 0 1 0 1 1 1 0 1 1 1 2 1 2 2 2 2 2 2 2 1 1 2 2 1 1 2 2 2 2 2 3
4 4 4 3 3 3 3 2 3 2 3 2 1 1 1 2 3 2 1 0 1 1 2 2 2 2 1 1 1 1 1 1 1 1 1 2 2 2 2 2 2 2 2
4 3 3 3 3 3 3 3 2 1 1 1 1 2 3 3 3 2 1 2 3 2 2 3 2 1 1 1 1 1 1 1 1 1 2 2 2 2 2 2 2 2 3
4 4 3 3 3 2 2 3 3 3 3 2 2 4 5 5 4 4 2 1 2 3 3 3 1 1 1 1 1 1 1 1 1 2 2 2 2 3 3 3 3 3 4
3 3 2 2 2 2 2 2 2 2 3 3 3 2 3 4 3 4 3 3 3 3 3 2 1 1 1 1 1 1 1 1 1 2 2 2 3 3 3 3 3 4 4
3 3 3 3 3 2 2 2 2 2 2 2 3 3 3 3 2 2 3 3 2 2 2 1 1 1 1 1 1 2 2 1 1 2 2 2 3 3 3 4 4 4 4
2 3 3 2 2 1 1 1 1 1 1 1 1 2 4 3 2 1 1 1 2 2 2 2 1 2 1 1 1 2 2 2 2 2 2 3 3 4 3 4 4 4 4
2 2 2 3 2 1 0 1 1 1 1 1 1 3 5 3 2 1 1 0 1 2 2 2 2 2 2 2 1 2 2 2 3 3 3 3 4 4 4 4 4 3 4
2 2 1 1 1 1 1 1 1 1 1 1 1 2 2 1 1 0 0 0 0 1 1 1 2 2 2 2 2 2 2 3 3 3 4 4 4 5 4 4 5 5 4
3 2 2 2 1 1 1 1 1 1 1 0 0 0 1 1 0 0 0 0 1 1 1 1 2 3 3 2 1 2 2 2 3 3 4 4 5 5 4 4 4 5 5
3 2 2 1 1 1 1 1 1 1 1 0 0 0 0 0 1 1 1 1 1 1 1 1 1 2 3 3 3 3 3 2 2 3 4 4 5 5 5 5 4 4 5
3 2 1 1 0 0 0 1 1 1 1 1 0 0 0 0 0 1 0 0 1 1 1 1 1 2 2 2 3 2 2 1 2 4 4 5 5 4 5 5 6 5 5
Wind_Direction
143 133 121 133 128 118 95 58 46 60 87 133 199 214 211 201 192 194 214 207 223 261 275 251 258 303 303 293 273 265 275 277 253 306 15 64 125 141 152 192 198 197 205
137 131 123 124 122 114 101 68 54 53 354 60 230 227 240 230 206 206 223 212 200 220 252 275 276 265 268 297 289 290 289 284 150 329 354 36 142 151 167 217 256 237 224
139 134 127 129 122 118 105 97 88 78 356 324 277 256 263 254 235 225 218 216 203 210 217 234 262 275 276 275 293 302 302 312 147 178 265 239 141 122 105 323 318 323 297
137 135 132 133 126 122 103 104 128 90 4 304 273 262 280 300 307 300 281 228 193 209 171 128 319 297 269 272 281 317 323 324 304 249 273 325 68 13 64 350 313 319 307
137 144 143 142 138 126 113 96 101 78 355 10 25 22 353 350 349 356 316 283 130 62 131 161 172 104 92 102 304 6 339 350 349 358 341 14 20 17 5 315 302 315 308
144 150 143 145 149 149 145 127 102 65 41 37 43 37 20 20 36 33 12 349 343 228 198 191 185 154 123 118 107 76 56 7 3 354 336 355 351 7 348 314 312 319 307
153 151 153 153 148 146 149 122 99 85 70 59 62 63 53 43 48 36 16 3 10 341 8 68 353 67 82 85 111 135 89 320 242 258 284 296 315 322 327 319 312 304 281
152 148 145 141 137 134 117 107 99 84 87 71 67 65 73 59 48 47 22 55 60 35 43 73 96 63 25 38 30 72 103 44 282 236 249 293 307 320 293 273 268 282 275
147 140 141 139 132 130 120 115 109 117 111 99 112 101 76 68 50 51 27 96 94 71 60 40 77 88 59 38 55 36 51 327 304 275 255 269 280 275 269 286 281 278 291
141 133 131 129 128 127 120 111 114 131 112 120 89 83 77 79 64 51 16 317 103 106 104 85 74 79 74 55 40 1 329 302 310 297 265 260 252 249 240 229 246 265 285
137 131 129 130 137 139 134 129 138 146 136 121 109 105 112 114 127 98 50 357 347 10 115 102 99 104 88 19 308 248 251 276 284 276 261 233 224 235 216 211 220 233 261
137 133 131 138 159 143 140 156 167 176 178 179 159 144 139 130 117 127 145 287 316 331 50 87 106 137 266 273 266 266 274 281 263 268 273 272 239 243 243 239 229 226 229
146 142 138 148 156 150 173 183 186 195 202 181 177 161 139 125 124 149 193 255 290 310 357 11 219 233 259 260 255 265 274 262 256 260 267 265 256 247 250 259 259 249 247
155 156 158 160 168 168 187 188 189 188 206 183 156 159 147 135 121 106 67 281 12 296 357 259 240 251 265 264 248 239 231 237 247 259 269 265 255 261 266 265 264 261 263
165 169 175 178 177 164 161 66 165 105 122 152 101 46 84 113 97 111 126 4 354 358 331 275 251 234 237 240 232 220 220 235 257 279 284 295 299 295 282 269 271 281 279
172 182 184 185 178 176 170 135 54 103 120 117 110 130 99 126 144 129 113 300 279 297 300 276 265 247 249 267 274 276 276 306 311 301 301 301 299 296 292 289 278 278 287
178 189 192 191 186 190 184 177 168 130 125 149 187 183 171 175 179 173 214 280 279 268 265 272 273 280 320 331 320 319 338 355 335 319 306 299 300 296 291 296 299 296 290
189 192 208 208 195 192 197 196 185 184 191 189 203 203 196 200 210 213 214 266 275 253 260 272 289 322 339 334 335 341 346 1 346 316 304 307 313 310 310 312 311 305 297
202 195 209 217 213 204 213 211 196 193 192 178 162 161 192 198 218 230 222 250 252 259 259 267 306 330 340 348 343 330 324 326 326 307 309 316 313 305 303 306 303 296 290
207 204 220 225 219 210 217 214 201 209 211 178 169 155 158 182 199 205 226 256 275 291 309 311 323 330 329 336 328 321 320 322 319 309 312 311 305 297 301 300 297 294 290
206 181 198 235 239 223 213 232 230 231 214 184 164 149 162 190 214 220 230 249 283 300 317 333 354 342 334 339 334 327 324 318 327 330 321 312 306 299 294 293 294 294 298
230 202 207 234 232 227 279 264 254 267 255 223 168 155 171 200 217 216 220 249 297 316 333 334 333 340 350 344 345 343 334 336 349 340 321 313 306 296 295 297 298 299 297
246 227 227 234 236 178 229 253 254 262 263 275 198 158 180 214 246 288 340 32 336 322 343 351 344 345 355 360 1 5 357 352 344 330 322 318 312 306 305 308 308 309 312
249 237 237 237 223 220 235 244 257 257 254 227 292 149 173 188 135 11 9 33 16 5 8 350 340 352 358 4 5 32 31 4 335 321 318 304 302 305 308 313 313 314 310
251 232 231 238 232 227 256 268 262 252 264 281 166 259 82 76 61 44 49 54 33 32 12 10 4 359 359 6 13 39 56 35 355 328 311 297 296 303 308 310 307 307 312
263 244 224 229 202 240 273 313 320 303 282 303 359 6 342 30 36 352 9 38 356 18 4 21 11 5 358 356 23 60 81 13 333 317 304 291 292 299 307 307 311 312 312